Location: Songkhla
(7.2000°N, 100.6000°E)
Time: 15:14:06
(UTC+07:00)

ISS - Pass Details

Date: 14 May 2021
Orbit: 417 x 422 km, 51.6° (Epoch: 21 June)

Event Time Altitude Azimuth Distance (km) Brightness Sun altitude
Rises 19:51:47 0° 245° (WSW) 2,347 0.7 -20.4°
Reaches altitude 10° 19:54:26 10° 267° (W) 1,484 -0.1 -21.0°
Maximum altitude 19:56:37 16° 308° (NW) 1,159 -0.6 -21.5°
Drops below altitude 10° 19:58:48 10° 349° (N) 1,483 -0.6 -22.0°
Sets 20:01:27 0° 12° (NNE) 2,345 0.2 -22.6°
